Lapse_Rate
6.9 6.9 6.8 6.7 6.6 6.4 6.3 6.3 6.1 5.9 5.8 5.6 5.6 5.7 5.6 5.5 6.1 6.9 6.9 6.7 6.4 6.1 6.0 5.9 5.7 5.7 5.8 5.9 6.1 6.2 6.2 6.1 6.3 6.5 6.5 6.6 6.6 6.6 6.7 6.7 6.6 6.6 6.4
6.9 6.8 6.7 6.6 6.4 6.3 6.2 6.1 6.1 5.8 5.6 5.6 5.7 5.6 5.5 5.8 6.9 7.1 6.7 6.3 6.2 6.0 5.9 5.8 5.6 5.7 5.6 5.8 6.6 6.6 6.2 6.1 6.2 6.3 6.4 6.5 6.7 6.6 6.7 6.6 6.5 6.4 6.5
6.9 6.7 6.5 6.3 6.2 6.2 6.0 5.8 5.6 5.5 5.5 5.6 5.6 5.6 5.6 6.2 6.7 6.7 6.5 6.4 6.2 6.1 5.8 5.6 5.7 5.7 5.8 6.1 6.6 6.6 6.3 6.1 6.1 6.1 6.2 6.3 6.4 6.6 6.5 6.6 6.4 6.5 6.6
6.7 6.5 6.4 6.3 6.1 5.9 5.7 5.7 5.8 5.7 5.7 5.7 5.7 5.7 6.2 6.3 6.4 6.4 6.6 6.5 6.3 6.1 5.8 5.8 5.8 5.9 5.8 6.0 6.2 6.3 6.2 6.1 6.1 6.1 6.1 6.3 6.5 6.5 6.3 6.4 6.3 6.3 6.2
6.5 6.3 6.3 6.1 5.9 5.7 5.8 5.9 6.0 6.1 6.0 5.8 6.1 6.1 6.3 6.2 6.2 6.3 6.5 6.4 6.3 6.3 6.1 6.1 6.1 6.1 6.0 6.0 6.0 6.1 6.1 6.1 6.1 6.2 6.3 6.3 6.2 6.3 6.3 6.3 6.2 6.1 6.1
6.3 6.1 6.1 5.9 5.8 5.8 5.9 5.9 6.0 6.0 6.0 6.0 6.6 6.4 6.3 6.2 6.0 6.1 6.4 6.4 6.2 6.3 6.3 6.2 6.3 6.3 6.3 6.3 6.2 6.2 6.1 6.0 6.1 6.2 6.2 6.2 6.1 6.3 6.3 6.2 6.2 6.1 6.0
6.1 6.1 5.9 5.8 5.8 5.8 5.9 6.0 5.9 5.9 6.0 5.7 5.8 6.3 6.2 6.2 6.3 6.0 6.3 6.3 6.2 6.2 6.3 6.3 6.4 6.5 6.6 6.5 6.4 6.3 6.1 6.1 6.0 6.1 6.1 6.2 6.2 6.2 6.1 6.2 6.2 6.2 6.0
5.9 5.8 5.7 5.7 5.7 5.8 5.9 5.8 5.7 5.7 5.7 6.1 6.0 6.1 6.0 6.0 6.2 6.3 6.3 6.3 6.3 6.2 6.3 6.5 6.4 6.4 6.5 6.6 6.3 6.1 6.1 6.0 6.1 6.1 6.1 6.2 6.3 6.3 6.3 6.3 6.4 6.4 6.2
5.6 5.5 5.6 5.7 5.8 5.9 5.8 5.8 5.7 5.6 5.6 5.8 5.9 5.8 6.1 6.2 6.1 6.1 6.2 6.4 6.5 6.4 6.2 6.4 6.5 6.4 6.3 6.4 6.4 6.2 6.1 6.2 6.2 6.1 6.2 6.3 6.5 6.6 6.7 6.8 6.7 6.5 6.3
5.6 5.6 5.7 5.8 5.8 5.8 5.7 5.5 5.5 5.4 5.5 5.6 5.6 5.7 5.7 5.9 6.2 6.2 5.9 6.2 6.2 6.5 6.4 6.4 6.4 6.4 6.3 6.4 6.5 6.3 6.3 6.3 6.3 6.2 6.2 6.5 6.5 6.7 6.8 6.8 6.7 6.5 6.3
5.5 5.6 5.7 5.7 5.6 5.6 5.5 5.5 5.4 5.2 5.5 5.5 5.6 5.5 5.5 5.7 6.1 6.5 6.6 5.7 5.5 6.0 6.2 6.3 6.2 6.4 6.3 6.2 6.3 6.3 6.2 6.1 6.1 6.2 6.3 6.5 6.5 6.6 6.6 6.6 6.4 6.3 6.3
5.4 5.5 5.6 5.6 5.7 5.6 5.3 5.3 5.1 5.0 5.1 5.4 5.4 5.5 5.6 5.6 5.8 6.0 6.4 6.2 6.2 5.6 5.6 5.9 5.9 6.0 6.0 6.1 6.1 6.0 6.2 6.2 6.0 6.0 6.1 6.2 6.3 6.3 6.3 6.3 6.3 6.2 6.1
5.2 5.3 5.5 5.4 5.4 5.3 5.3 5.1 5.1 4.8 4.9 5.3 5.3 5.4 5.6 5.6 5.5 5.6 5.9 6.2 6.3 6.0 5.7 5.9 5.8 5.5 5.6 5.7 6.0 5.9 5.8 5.9 6.0 6.0 5.9 5.9 5.9 6.0 6.0 6.0 6.0 6.0 6.0
5.4 5.4 5.4 5.3 5.2 5.0 5.1 5.0 5.0 4.8 4.7 4.9 5.1 5.3 5.6 5.6 5.6 5.6 5.6 5.6 6.0 6.2 5.9 5.5 5.7 5.9 5.7 5.4 5.5 5.6 5.5 5.5 5.6 5.8 5.8 5.9 5.8 5.8 5.9 5.8 5.8 5.8 5.8
5.0 5.0 5.0 4.9 4.7 4.6 4.6 4.6 4.8 4.7 4.7 4.8 4.9 5.1 5.4 5.5 5.5 5.7 5.8 5.7 5.4 6.0 6.4 5.7 5.0 5.4 5.6 5.5 5.4 5.4 5.4 5.3 5.2 5.2 5.4 5.5 5.7 5.6 5.6 5.6 5.6 5.6 5.5
5.0 4.9 4.7 4.4 4.3 4.2 4.4 4.5 4.4 4.3 4.4 4.5 4.7 4.7 4.9 5.0 5.2 5.3 5.4 5.7 5.8 5.5 6.0 6.4 5.0 4.6 5.0 5.2 5.0 5.1 5.0 5.1 5.0 5.0 4.9 5.0 5.2 5.3 5.4 5.4 5.4 5.4 5.4
4.6 4.4 4.1 4.0 4.0 4.2 4.4 4.4 4.3 4.3 4.4 4.5 4.6 4.8 4.9 4.8 5.0 4.9 4.9 5.1 5.2 5.4 5.7 6.6 6.1 4.9 4.5 4.5 4.6 4.9 4.8 4.8 4.7 4.8 4.9 4.8 4.7 4.8 5.0 5.1 5.2 5.2 5.2
4.2 4.1 3.9 4.0 4.0 4.0 4.0 4.1 4.1 4.1 4.2 4.4 4.5 4.7 4.9 4.9 5.0 4.8 4.5 4.5 4.8 4.9 4.7 5.7 6.0 6.0 4.8 4.3 4.7 4.6 4.4 4.7 4.8 4.6 4.6 4.7 4.7 4.6 4.7 4.7 4.9 5.0 5.0
4.0 3.9 3.8 3.9 4.0 4.0 4.0 3.9 3.8 3.8 4.0 4.2 4.4 4.5 4.7 4.9 4.9 4.8 4.7 4.7 4.5 4.3 4.4 4.7 5.7 5.1 5.3 4.9 4.6 4.9 4.8 4.8 4.9 5.0 4.9 4.6 4.4 4.3 4.3 4.5 4.6 4.7 4.7
3.6 3.5 3.4 3.3 3.3 3.3 3.4 3.4 3.5 3.6 3.8 4.0 4.3 4.5 4.6 4.7 4.8 4.9 4.8 4.7 4.5 4.6 4.7 4.7 4.9 5.4 5.2 4.9 4.6 4.8 5.1 5.2 5.2 5.2 5.1 5.0 4.8 4.5 4.4 4.3 4.3 4.4 4.5
3.3 3.3 3.3 3.4 3.4 3.4 3.4 3.6 3.7 3.9 4.0 4.1 4.2 4.3 4.5 4.6 4.6 4.7 4.7 4.8 4.7 4.6 4.4 4.5 4.8 5.3 5.8 5.3 4.9 4.6 5.1 5.2 5.2 5.2 5.2 5.2 5.2 5.0 4.7 4.6 4.5 4.4 4.5
3.6 3.6 3.7 3.6 3.7 3.8 3.9 3.9 4.0 4.3 4.5 4.6 4.7 4.6 4.4 4.3 4.3 4.3 4.3 4.4 4.5 4.5 4.6 4.4 4.3 4.8 5.4 5.3 5.1 5.0 5.2 5.4 5.3 5.0 5.3 5.2 5.2 5.3 5.3 5.2 4.9 4.8 4.8
3.6 3.6 3.5 3.6 3.8 3.9 4.1 4.2 4.3 4.4 4.5 4.6 4.6 4.6 4.6 4.6 4.5 4.4 4.3 4.4 4.6 4.6 4.7 4.5 4.5 4.8 4.8 5.2 5.2 5.3 5.3 5.4 5.5 5.3 5.1 5.2 5.1 5.3 5.4 5.4 5.2 5.1 5.0
3.4 3.5 3.5 3.7 3.7 4.0 4.3 4.4 4.5 4.5 4.6 4.7 4.7 4.8 4.8 4.8 4.7 4.6 4.5 4.6 4.6 4.6 4.8 5.0 5.3 5.2 5.3 5.2 5.4 5.4 5.4 5.5 5.7 5.5 5.5 5.5 5.3 5.0 5.0 5.2 5.3 5.3 5.1
3.8 3.9 4.1 4.4 4.6 4.9 5.0 5.1 5.1 5.0 5.1 5.2 5.0 5.0 4.9 4.8 4.9 4.9 4.9 4.9 5.0 5.1 5.0 5.0 5.0 5.2 5.3 5.4 5.3 5.4 5.2 5.2 5.5 5.7 5.6 5.9 5.8 5.4 5.0 5.1 5.2 5.3 5.3
4.2 4.7 5.0 5.2 5.5 5.4 5.3 5.4 5.3 5.3 5.4 5.2 5.1 5.0 4.9 4.9 4.9 5.0 5.0 5.1 5.4 5.5 5.2 5.0 5.0 4.9 4.9 5.1 5.1 5.2 5.1 5.1 5.1 5.4 5.5 5.5 5.6 5.6 5.6 5.4 5.4 5.4 5.3
Wind_Speed
5 7 9 9 10 12 10 9 10 10 10 12 13 10 9 11 12 12 9 8 5 7 9 11 12 13 13 11 10 8 8 7 7 8 10 10 11 12 13 13 13 13 14
5 7 6 7 9 11 11 9 7 6 6 9 7 10 9 11 11 9 6 6 9 9 9 11 13 13 14 12 9 7 6 7 7 8 8 9 9 11 13 12 11 13 14
6 5 4 5 7 9 11 11 8 8 5 7 6 6 7 9 9 8 6 6 8 10 12 13 13 13 12 11 12 12 11 11 11 10 11 10 11 10 12 13 14 15 16
3 4 4 4 8 8 7 5 3 4 4 5 5 5 4 6 7 5 5 6 6 7 9 10 11 11 11 11 12 14 14 13 12 13 12 10 11 13 16 17 16 18 21
2 3 4 5 6 6 5 3 2 2 4 7 6 4 4 4 4 6 6 7 5 4 5 4 5 10 12 13 13 13 14 14 15 14 12 12 13 13 15 17 18 21 21
3 3 3 4 6 3 4 3 2 2 1 5 5 4 4 4 3 4 3 5 4 4 2 4 5 6 8 7 10 11 12 14 16 15 14 14 14 15 16 18 19 21 20
5 4 4 4 5 3 3 3 2 4 3 4 4 4 3 3 5 5 5 3 6 8 8 9 5 8 8 3 3 7 11 13 14 15 15 14 13 14 16 17 19 21 21
6 6 4 3 4 3 4 3 3 3 2 3 2 2 4 4 3 2 3 4 6 5 7 10 8 9 8 7 5 6 9 13 14 14 16 16 14 14 16 17 18 20 21
8 8 7 5 4 2 3 2 2 1 2 2 2 1 3 2 3 3 2 2 3 3 4 8 8 12 10 5 3 5 8 12 14 14 15 16 16 16 16 16 18 19 21
8 7 7 6 5 3 4 2 1 1 2 2 2 1 1 2 2 4 3 2 3 4 4 4 6 11 10 5 2 1 6 10 13 14 14 14 15 16 16 16 17 18 19
7 8 8 7 4 3 3 4 3 2 2 2 2 1 1 1 3 3 4 4 3 2 4 4 5 6 6 3 3 4 4 10 13 13 14 15 14 16 16 16 17 18 19
4 8 9 7 6 4 4 3 3 4 4 4 3 4 3 3 2 2 3 3 5 4 4 4 3 4 3 2 3 5 6 9 12 13 13 13 13 14 15 16 16 17 19
3 5 6 6 3 6 7 5 4 4 5 3 5 4 4 5 3 3 2 4 3 3 3 4 2 2 2 2 3 6 8 10 11 11 12 12 11 12 13 14 15 16 16
4 6 7 8 9 9 8 7 3 4 5 5 6 5 4 4 4 4 3 2 8 6 2 5 2 3 2 3 5 7 7 11 11 10 10 9 9 10 11 12 14 14 14
3 4 5 4 6 6 5 4 3 5 4 5 5 5 4 5 4 4 4 5 5 6 9 3 3 2 3 4 8 9 12 11 11 12 11 9 7 8 8 9 11 12 12
3 5 5 5 6 6 5 5 4 5 5 4 4 5 5 4 5 4 4 4 5 7 8 4 5 4 4 7 13 10 14 12 11 12 12 11 8 8 7 7 8 9 9
5 6 6 6 6 6 6 5 5 6 6 6 5 6 6 6 4 4 4 4 5 6 9 8 4 5 4 5 6 10 10 11 11 11 13 13 10 8 7 5 4 6 7
5 5 5 6 6 6 6 6 6 6 6 6 6 6 6 4 6 5 4 6 6 6 7 13 4 4 6 5 5 5 4 7 7 10 12 13 12 9 8 5 3 3 3
6 6 6 6 6 6 6 6 6 6 6 6 6 6 7 6 6 4 5 5 4 5 5 7 8 2 4 2 3 3 3 4 7 8 9 10 11 10 8 7 6 4 2
6 6 6 6 6 6 6 6 6 6 6 6 6 6 6 6 7 6 6 7 5 5 4 5 6 4 4 2 2 3 4 2 3 3 5 5 8 8 9 9 9 7 5
6 6 6 6 6 6 5 6 6 7 6 7 6 6 6 7 13 12 6 7 5 4 4 4 5 2 3 2 4 2 3 2 3 3 2 2 2 3 7 9 9 9 8
6 5 6 6 7 5 11 15 11 6 6 6 6 6 6 10 9 13 13 13 9 5 5 4 5 6 7 4 3 4 3 2 3 2 2 2 2 3 3 8 10 11 10
6 7 7 6 7 7 15 16 15 5 6 6 6 6 6 5 8 6 11 12 9 10 11 5 8 6 4 5 4 3 5 4 4 3 2 3 2 3 3 7 10 12 12
6 6 7 7 6 7 16 17 16 7 5 6 6 6 6 7 7 8 6 6 6 6 6 4 5 6 5 4 5 4 4 3 2 2 2 3 1 3 2 5 7 11 13
5 5 6 7 7 9 15 16 14 6 6 7 6 6 5 6 10 10 5 5 6 5 5 8 10 11 13 14 8 4 2 2 2 2 3 1 1 2 2 2 3 5 12
7 5 8 6 10 8 14 16 12 4 6 5 6 6 9 8 11 12 5 4 5 5 5 6 5 5 5 6 8 7 4 3 2 2 2 3 0 1 3 1 2 3 2
Wind_Direction
38 28 25 20 15 9 6 355 356 355 351 346 340 340 336 337 339 341 339 3 56 58 55 45 28 20 9 1 354 351 350 345 332 339 332 328 322 313 308 302 301 299 295
48 37 21 13 12 5 355 355 349 348 336 340 332 335 329 333 336 339 346 36 61 62 61 51 39 18 7 354 351 346 15 15 3 348 337 323 320 326 323 326 315 315 312
45 39 20 9 360 355 358 356 352 344 344 345 333 329 333 334 339 345 35 72 68 55 60 57 41 24 2 347 358 10 15 11 4 346 344 346 357 353 352 352 337 326 317
31 26 18 2 352 359 354 349 349 339 350 337 324 322 334 334 347 21 52 67 70 70 65 60 35 19 10 355 1 359 1 357 347 345 355 4 0 355 347 340 330 327 319
338 7 3 343 352 357 1 349 325 4 346 342 329 340 3 3 358 29 36 25 38 73 94 74 66 53 15 7 7 359 1 346 345 347 360 10 3 353 345 335 332 331 331
316 331 323 338 358 354 346 347 335 330 324 331 317 354 40 23 13 36 30 27 30 17 291 318 339 1 62 11 1 354 354 351 345 344 356 0 353 2 340 338 332 334 338
305 297 308 331 345 340 324 324 323 358 340 340 340 342 348 40 43 17 20 32 43 7 346 336 348 343 331 346 15 11 356 354 345 340 349 348 352 351 344 338 337 336 345
309 315 318 310 304 321 335 339 15 348 321 8 17 300 360 332 1 27 358 5 30 11 7 351 339 339 336 336 341 49 2 351 345 342 341 342 352 358 344 343 344 341 352
337 329 312 296 294 263 286 288 309 27 318 311 28 134 351 305 320 317 318 327 352 343 342 347 347 335 309 314 359 7 2 350 344 342 339 338 352 355 341 342 345 347 346
336 339 333 321 297 284 286 291 245 221 193 277 322 262 217 200 288 322 312 298 313 329 328 320 309 312 302 256 233 316 357 346 344 338 338 342 353 347 343 345 344 347 346
338 345 345 339 327 308 284 289 300 271 228 228 214 282 306 274 232 230 291 310 320 282 286 282 293 297 299 219 272 270 336 343 346 338 334 341 353 350 347 347 349 352 352
329 346 345 340 330 316 306 298 282 256 249 234 231 223 212 220 240 230 268 289 288 296 293 301 315 315 262 205 302 302 320 330 328 331 330 338 350 349 349 349 352 354 355
318 323 334 337 330 321 316 315 301 284 267 233 233 238 222 228 214 223 234 274 272 298 306 299 253 342 241 212 301 311 303 316 314 318 326 333 344 348 349 352 356 357 358
310 323 331 335 333 330 331 327 313 289 269 259 255 239 245 239 213 212 223 234 293 292 308 253 297 324 206 230 301 305 299 308 307 299 313 321 329 342 348 353 358 359 3
269 301 312 315 316 320 323 319 304 293 286 270 261 259 240 247 233 229 219 208 239 282 287 278 289 262 231 245 291 302 310 299 298 294 298 304 309 324 338 351 358 359 8
302 311 319 318 313 318 320 325 309 292 291 284 273 271 263 253 250 235 233 226 221 244 269 186 230 242 249 266 281 286 306 302 295 297 289 297 291 308 322 336 354 358 5
311 323 324 322 321 321 322 322 304 293 295 295 290 280 278 275 268 259 241 234 238 230 255 268 220 221 235 257 282 288 295 298 294 296 294 296 283 293 304 312 343 355 5
321 317 318 318 312 312 314 310 301 296 293 294 292 294 286 292 284 266 256 249 235 228 245 270 266 241 229 218 242 276 278 279 275 287 288 290 280 279 292 281 284 331 0
318 320 321 311 306 304 305 297 287 289 287 282 282 283 282 285 282 271 265 254 236 243 228 253 272 254 261 243 258 252 264 284 278 279 287 292 274 261 272 267 252 265 302
316 313 304 298 298 302 297 291 287 287 285 276 276 277 283 277 273 273 264 257 255 247 231 239 257 253 235 236 252 254 280 246 284 280 272 264 273 266 263 267 259 232 239
301 298 300 302 305 304 292 294 287 285 283 284 280 277 272 268 273 272 268 266 244 242 239 237 251 227 233 214 214 222 242 271 281 235 290 278 186 209 261 272 263 230 233
296 303 307 302 301 293 289 295 293 276 277 272 280 286 281 289 284 289 285 273 245 231 234 210 248 245 243 202 192 216 207 191 285 208 186 286 246 238 222 229 237 236 236
312 302 295 293 288 289 295 295 292 272 272 266 267 283 297 282 301 292 297 293 283 269 244 221 242 237 246 208 199 211 215 201 219 226 160 256 195 266 253 245 226 221 217
287 287 287 282 280 285 292 294 291 276 271 268 264 269 270 285 288 294 282 285 291 300 285 271 241 266 240 240 207 199 204 219 285 259 167 249 162 254 277 258 243 217 212
281 273 265 279 281 285 292 298 298 283 272 270 270 271 267 279 290 314 317 296 295 290 295 298 293 280 273 265 234 137 204 141 272 258 207 204 216 270 281 297 284 241 216
275 280 286 271 275 281 291 300 305 270 269 269 280 268 277 281 297 304 298 283 286 276 290 306 312 309 305 299 296 190 165 184 197 307 216 174 283 100 327 317 325 311 278